CRYC Weather Reports


Display with metric or nautical units.
time (UTC)temp
F
wind
direction
speed
MPH
gust
MPH
rain 1hr
in
rain 24hr
in
rain mn
in
humidity
%
barometer
mb
20260505174842 84 191 3.0 2.0 0.00 0.00 0.00
20260505173844 83 263 4.0 1.0 0.00 0.00 0.00
20260505172835 83 228 14.0 9.0 0.00 0.00 0.00
20260505171831 81 229 11.0 11.0 0.00 0.00 0.00
20260505170826 82 259 8.0 12.0 0.00 0.00 0.00
20260505165823 81 239 6.0 8.0 0.00 0.00 0.00
20260505164819 81 233 7.0 11.0 0.00 0.00 0.00
20260505163815 80 248 7.0 11.0 0.00 0.00 0.00
20260505162811 79 231 8.0 12.0 0.00 0.00 0.00
20260505161808 79 263 11.0 10.0 0.00 0.00 0.00
20260505160803 79 246 8.0 9.0 0.00 0.00 0.00
20260505151742 77 260 9.0 13.0 0.00 0.00 0.00
20260505150738 78 255 8.0 6.0 0.00 0.00 0.00
20260505124635 68 259 12.0 12.0 0.00 0.00 0.00
20260505123631 69 249 12.0 16.0 0.00 0.00 0.00
20260505122628 68 225 12.0 10.0 0.00 0.00 0.00
20260505121620 68 242 11.0 11.0 0.00 0.00 0.00
20260505120622 68 253 11.0 9.0 0.00 0.00 0.00
20260505115610 68 269 6.0 9.0 0.00 0.00 0.00
20260505114600 68 252 10.0 14.0 0.00 0.00 0.00
20260505113554 66 256 13.0 20.0 0.00 0.00 0.00
20260505112548 67 260 12.0 7.0 0.00 0.00 0.00
20260505111552 70 217 11.0 10.0 0.00 0.00 0.00
20260505110538 64 257 12.0 9.0 0.00 0.00 0.00
20260505101516 61 232 10.0 8.0 0.00 0.00 0.00
20260505100508 61 253 9.0 12.0 0.00 0.00 0.00
20260505095458 60 256 8.0 11.0 0.00 0.00 0.00
20260505094452 60 210 10.0 5.0 0.00 0.00 0.00
20260505093444 61 229 9.0 6.0 0.00 0.00 0.00
20260505091430 61 248 7.0 11.0 0.00 0.00 0.00
20260505090421 61 252 8.0 7.0 0.00 0.00 0.00
20260505085416 61 250 11.0 8.0 0.00 0.00 0.00
20260505084405 62 245 11.0 12.0 0.00 0.00 0.00
20260505083400 61 250 10.0 12.0 0.00 0.00 0.00
20260505081342 62 246 13.0 12.0 0.00 0.00 0.00
20260505080337 62 248 10.0 4.0 0.00 0.00 0.00
20260505075335 62 225 9.0 8.0 0.00 0.00 0.00
20260505074330 62 257 10.0 11.0 0.00 0.00 0.00
20260505073322 62 257 13.0 8.0 0.00 0.00 0.00
20260505071310 62 238 14.0 7.0 0.00 0.00 0.00
20260505070257 62 226 7.0 7.0 0.00 0.00 0.00
20260505065251 61 252 8.0 13.0 0.00 0.00 0.00
20260505064242 61 245 6.0 1.0 0.00 0.00 0.00
20260505063235 61 158 4.0 4.0 0.00 0.00 0.00
20260505062222 61 273 5.0 4.0 0.00 0.00 0.00
20260505061217 61 243 4.0 4.0 0.00 0.00 0.00
20260505060200 61 248 0.0 3.0 0.00 0.00 0.00
20260505055149 61 120 3.0 1.0 0.00 0.00 0.00
20260505054143 61 240 2.0 7.0 0.00 0.00 0.00
20260505053136 60 198 2.0 1.0 0.00 0.00 0.00
20260505052124 60 266 2.0 7.0 0.00 0.00 0.00
20260505051156 60 107 1.0 0.0 0.00 0.00 0.00
20260505051114 60 107 1.0 0.0 0.00 0.00 0.00
20260505050109 60 124 0.0 0.0 0.00 0.00 0.00
20260505041031 61 219 4.0 2.0 0.00 0.00 0.00
20260505035016 61 264 2.0 1.0 0.00 0.00 0.00
20260505034005 61 267 0.0 3.0 0.00 0.00 0.00
20260505032956 61 145 1.0 0.0 0.00 0.00 0.00
20260505031951 61 256 1.0 4.0 0.00 0.00 0.00
20260505030938 61 183 1.0 1.0 0.00 0.00 0.00
20260505025933 62 145 2.0 0.0 0.00 0.00 0.00
20260505024926 62 194 4.0 5.0 0.00 0.00 0.00
20260505023918 62 204 3.0 3.0 0.00 0.00 0.00
20260505022911 62 211 2.0 1.0 0.00 0.00 0.00
20260505021902 63 165 3.0 1.0 0.00 0.00 0.00
20260505020854 63 181 4.0 6.0 0.00 0.00 0.00
20260505015847 63 194 3.0 7.0 0.00 0.00 0.00
20260505014841 63 174 4.0 2.0 0.00 0.00 0.00
20260505013834 63 183 2.0 4.0 0.00 0.00 0.00
20260505012829 64 170 3.0 0.0 0.00 0.00 0.00
20260505011823 64 101 0.0 0.0 0.00 0.00 0.00
20260505010815 64 166 1.0 0.0 0.00 0.00 0.00
20260505005808 64 180 0.0 1.0 0.00 0.00 0.00
20260505004801 65 217 0.0 0.0 0.00 0.00 0.00
20260505003755 65 150 0.0 0.0 0.00 0.00 0.00
20260505002749 65 148 1.0 0.0 0.00 0.00 0.00
20260505001744 65 226 0.0 0.0 0.00 0.00 0.00
20260505000734 66 156 0.0 0.0 0.00 0.00 0.00
20260504235722 66 162 2.0 0.0 0.00 0.00 0.00
20260504234716 67 153 0.0 0.0 0.00 0.00 0.00
20260504233709 68 142 0.0 0.0 0.00 0.00 0.00
20260504232702 68 263 0.0 0.0 0.00 0.00 0.00
20260504231658 69 214 0.0 0.0 0.00 0.00 0.00
20260504230650 70 219 1.0 4.0 0.00 0.00 0.00
20260504225649 72 260 3.0 7.0 0.00 0.00 0.00
20260504224639 73 266 1.0 10.0 0.00 0.00 0.00
20260504223633 74 240 5.0 2.0 0.00 0.00 0.00
20260504222620 76 158 4.0 2.0 0.00 0.00 0.00
20260504221615 77 48 1.0 0.0 0.00 0.00 0.00
20260504215606 77 257 11.0 4.0 0.00 0.00 0.00
20260504214601 77 277 9.0 7.0 0.00 0.00 0.00
20260504213554 78 269 11.0 12.0 0.00 0.00 0.00
20260504212550 77 240 5.0 3.0 0.00 0.00 0.00
20260504211545 78 198 5.0 2.0 0.00 0.00 0.00
20260504210540 78 257 11.0 14.0 0.00 0.00 0.00
20260504205538 78 222 6.0 7.0 0.00 0.00 0.00
20260504204533 78 248 6.0 11.0 0.00 0.00 0.00
20260504203527 79 238 8.0 5.0 0.00 0.00 0.00
20260504202522 78 253 10.0 11.0 0.00 0.00 0.00
20260504201517 78 229 9.0 7.0 0.00 0.00 0.00
20260504200521 78 250 8.0 4.0 0.00 0.00 0.00
20260504195522 78 264 10.0 13.0 0.00 0.00 0.00
20260504194505 78 211 10.0 8.0 0.00 0.00 0.00
20260504193501 78 242 13.0 7.0 0.00 0.00 0.00
20260504192455 78 221 9.0 3.0 0.00 0.00 0.00
20260504191452 78 222 6.0 2.0 0.00 0.00 0.00
20260504190444 78 260 7.0 5.0 0.00 0.00 0.00
20260504184434 77 262 9.0 9.0 0.00 0.00 0.00
20260504183430 78 276 5.0 5.0 0.00 0.00 0.00
20260504182427 77 269 9.0 10.0 0.00 0.00 0.00
20260504181421 77 277 8.0 7.0 0.00 0.00 0.00
20260504180418 76 266 11.0 10.0 0.00 0.00 0.00